User: anonymous   Login
Location: Bonny Doon Airfield
(37.0704°N, 122.1252°W)
Time: 18:56:28
(UTC-07:00)
Language:

BREEZE M DEB (TANK) - Orbit

View from above orbital plane
View from above orbital plane
View from above satellite
View from above satellite

Ground track
Ground track

The orbit data is extracted from the following two-line orbital elements,

1 33437U 08057B   15146.55552705  .00002213  00000-0  45223-3 0  9998
2 33437 049.5546 169.0740 5015639 249.3290 309.8448 05.57752135131753
Epoch (UTC): 26 May 2015 13:19:57
Eccentricity: 0.5015639
inclination: 49.5546°
perigee height: 316 km
apogee height: 13789 km
right ascension of ascending node: 169.0740°
argument of perigee: 249.3290°
revolutions per day: 5.57752135
mean anomaly at epoch: 309.8448°
orbit number at epoch: 13175

The dashed part of the orbit path shows where the satellite is in the earth's shadow,  

DLR